Location: Bílinka
(49.3579°N, 14.3767°E)
Time: 14:24:41
(UTC+00:00)

CZ-4B R/B - Visible Passes

Search period start: 25 September 2023 00:00
Search period end: 05 October 2023 00:00
Orbit: 808 x 882 km, 99.0° (Epoch: 24 September)

Date Brightness Start Highest point End Pass type
(mag) Time Alt. Az. Time Alt. Az. Time Alt. Az.
25 Sep 4.0 18:50:08 10° S 18:55:14 48° W 19:00:22 10° NNW visible
26 Sep 3.6 18:36:24 10° S 18:41:37 62° WSW 18:46:55 10° NNW visible
27 Sep 3.2 18:22:47 10° SSE 18:28:04 79° WSW 18:33:25 10° NNW visible
27 Sep 5.9 20:07:24 10° WSW 20:09:31 12° W 20:11:39 10° WNW visible
28 Sep 3.0 18:09:15 10° SSE 18:14:31 82° ENE 18:19:52 10° NNW visible
28 Sep 5.7 19:52:33 10° SW 19:55:46 16° W 19:59:01 10° NW visible
29 Sep 3.1 17:55:48 10° SSE 18:01:00 65° ENE 18:06:18 10° N visible
29 Sep 5.4 19:38:08 10° SW 19:42:03 21° W 19:46:01 10° NW visible
30 Sep 3.3 17:42:26 10° SE 17:47:31 51° ENE 17:52:41 10° N visible
30 Sep 5.0 19:23:56 10° SSW 19:28:22 27° W 19:32:50 10° NW visible
01 Oct 3.6 17:29:10 10° SE 17:34:03 40° ENE 17:39:02 10° N visible
01 Oct 4.6 19:09:56 10° SSW 19:14:42 34° W 19:19:32 10° NNW visible
02 Oct 3.9 17:15:59 10° ESE 17:20:38 32° ENE 17:25:20 10° N visible
02 Oct 4.2 18:56:03 10° S 19:01:04 44° W 19:06:10 10° NNW visible
03 Oct 4.2 17:02:55 10° ESE 17:07:13 26° ENE 17:11:35 10° N visible
03 Oct 3.7 18:42:16 10° S 18:47:27 56° W 18:52:44 10° NNW visible
04 Oct 3.3 18:28:36 10° S 18:33:52 72° WSW 18:39:15 10° NNW visible
04 Oct 6.0 20:13:57 10° W 20:15:26 11° W 20:16:54 10° WNW visible
